Weather History for McConnell AFB, KS

Change the Weather History Date:

Sunday, November 4, 2012

  Actual Average Record
Temperature  
Mean Temperature 52 °F -  
Max Temperature 66 °F 58 °F 75 °F (2005)
Min Temperature 39 °F 39 °F 30 °F (1997)
Degree Days  
Heating Degree Days 12    
Growing Degree Days 2 (Base 50)    
Moisture  
Dew Point 35 °F    
Average Humidity 69    
Maximum Humidity 82    
Minimum Humidity 25    
Precipitation  
Precipitation 0.00 in - - ()
Sea Level Pressure  
Sea Level Pressure 30.19 in    
Wind  
Wind Speed 3 mph (SE)    
Max Wind Speed 16 mph    
Max Gust Speed -    
Visibility 3 miles    
Events      
Averages and records for this station are not official NWS values.
T = Trace of Precipitation, MM = Missing Value Source: NWS Daily Summary

Daily Weather History Graph

Daily Weather History Graph

Search for Another Location

Airport:

Trip Planner

Search our weather history database for the weather conditions in past years. The results will help you decide how hot, cold, wet, or windy it might be!

Date:

Astronomy

Nov. 04, 2012 Rise Set
Actual Time 6:57 AM CST 5:26 PM CST
Civil Twilight 6:30 AM CST 5:54 PM CST
Nautical Twilight 5:59 AM CST 6:25 PM CST
Astronomical Twilight 5:28 AM CST 6:55 PM CST
Moon 10:07 PM CST (11/4) 11:41 AM CST (11/4)
Length of Visible Light 11h 23m
Length of Day
10h 29m
Waning Gibbous, 72% of the Moon is Illuminated
Nov 4
Waning Gibbous
Nov 6
Last Quarter
Nov 13
New
Nov 20
First Quarter
Nov 28
Full

Hourly Weather History & Observations

Time (CST) Temp. Windchill Dew Point Humidity Pressure Visibility Wind Dir Wind Speed Gust Speed Precip Events Conditions
12:02 AM 46.4 °F 45.2 °F 35.6 °F 66% 30.22 in 4.0 mi NNE 3.5 mph - N/A   Haze
12:05 AM 46.4 °F 45.2 °F 35.6 °F 66% 30.22 in 2.5 mi NNE 3.5 mph - N/A   Haze
12:07 AM 46.4 °F 45.2 °F 35.6 °F 66% 30.22 in 2.5 mi NNE 3.5 mph - N/A   Haze
12:09 AM 46.4 °F 45.2 °F 35.6 °F 66% 30.22 in 2.0 mi NNE 3.5 mph - N/A   Haze
12:29 AM 46.4 °F 45.2 °F 35.6 °F 66% 30.21 in 1.8 mi NE 3.5 mph - N/A   Haze
12:31 AM 46.4 °F 44.3 °F 35.6 °F 66% 30.22 in 1.2 mi NE 4.6 mph - N/A   Haze
12:33 AM 46.4 °F 44.3 °F 35.6 °F 66% 30.21 in 1.0 mi NE 4.6 mph - N/A   Haze
12:35 AM 46.4 °F 44.3 °F 35.6 °F 66% 30.21 in 0.8 mi NE 4.6 mph - N/A   Haze
12:38 AM 46.4 °F 45.2 °F 35.6 °F 66% 30.22 in 0.8 mi NE 3.5 mph - N/A   Haze
12:43 AM 46.4 °F - 35.6 °F 66% 30.22 in 0.8 mi Calm Calm - N/A   Haze
12:55 AM 46.0 °F - 35.8 °F 67% 30.22 in 0.8 mi Calm Calm - N/A   Haze
1:05 AM 44.6 °F 43.1 °F 35.6 °F 71% 30.22 in 0.8 mi NE 3.5 mph - N/A   Haze
1:16 AM 42.8 °F 41.1 °F 35.6 °F 76% 30.22 in 0.5 mi NE 3.5 mph - N/A   Haze
1:55 AM 43.5 °F 41.9 °F 36.0 °F 75% 30.21 in 0.5 mi NE 3.5 mph - N/A   Haze
1:03 AM 44.6 °F 43.1 °F 35.6 °F 71% 30.21 in 0.8 mi ENE 3.5 mph - N/A   Haze
1:07 AM 44.6 °F - 35.6 °F 71% 30.20 in 0.8 mi Calm Calm - N/A   Haze
1:09 AM 44.6 °F - 35.6 °F 71% 30.20 in 0.8 mi Calm Calm - N/A   Haze
1:10 AM 44.6 °F - 35.6 °F 71% 30.20 in 1.0 mi Calm Calm - N/A   Haze
1:14 AM 44.6 °F - 35.6 °F 71% 30.20 in 1.2 mi Calm Calm - N/A   Haze
1:25 AM 44.6 °F - 35.6 °F 71% 30.20 in 1.0 mi Calm Calm - N/A   Haze
1:27 AM 44.6 °F - 35.6 °F 71% 30.20 in 1.2 mi Calm Calm - N/A   Haze
1:29 AM 44.6 °F - 35.6 °F 71% 30.20 in 1.0 mi Calm Calm - N/A   Haze
1:33 AM 44.6 °F - 35.6 °F 71% 30.20 in 1.2 mi Calm Calm - N/A   Haze
1:42 AM 44.6 °F 43.1 °F 35.6 °F 71% 30.20 in 1.0 mi NE 3.5 mph - N/A   Haze
1:47 AM 44.6 °F - 35.6 °F 71% 30.20 in 0.8 mi Calm Calm - N/A   Haze
1:55 AM 44.2 °F - 36.1 °F 73% 30.20 in 0.8 mi Calm Calm - N/A   Haze
2:06 AM 41.0 °F 39.0 °F 35.6 °F 81% 30.20 in 0.8 mi NE 3.5 mph - N/A   Haze
2:10 AM 41.0 °F 39.0 °F 35.6 °F 81% 30.20 in 0.8 mi ENE 3.5 mph - N/A   Haze
2:17 AM 42.8 °F 41.1 °F 37.4 °F 81% 30.20 in 0.8 mi ENE 3.5 mph - N/A   Haze
2:23 AM 42.8 °F 41.1 °F 37.4 °F 81% 30.20 in 1.0 mi ENE 3.5 mph - N/A   Haze
2:32 AM 44.6 °F 43.1 °F 37.4 °F 76% 30.20 in 0.8 mi ENE 3.5 mph - N/A   Haze
2:36 AM 44.6 °F 43.1 °F 37.4 °F 76% 30.20 in 1.0 mi ENE 3.5 mph - N/A   Haze
2:37 AM 44.6 °F - 35.6 °F 71% 30.20 in 1.0 mi Calm Calm - N/A   Haze
2:44 AM 44.6 °F 43.1 °F 35.6 °F 71% 30.20 in 1.2 mi East 3.5 mph - N/A   Haze
2:49 AM 44.6 °F 43.1 °F 35.6 °F 71% 30.20 in 1.5 mi East 3.5 mph - N/A   Haze
2:55 AM 44.2 °F - 36.1 °F 73% 30.20 in 1.5 mi Calm Calm - N/A   Haze
3:02 AM 44.6 °F - 35.6 °F 71% 30.20 in 1.8 mi Calm Calm - N/A   Haze
3:04 AM 44.6 °F - 35.6 °F 71% 30.20 in 1.2 mi Calm Calm - N/A   Haze
3:05 AM 44.6 °F - 35.6 °F 71% 30.20 in 1.2 mi Calm Calm - N/A   Haze
3:06 AM 44.6 °F - 35.6 °F 71% 30.20 in 1.0 mi Calm Calm - N/A   Haze
3:13 AM 42.8 °F - 35.6 °F 76% 30.20 in 1.2 mi Calm Calm - N/A   Haze
3:14 AM 42.8 °F - 35.6 °F 76% 30.20 in 1.2 mi Calm Calm - N/A   Haze
3:15 AM 42.8 °F 41.1 °F 35.6 °F 76% 30.20 in 1.5 mi ESE 3.5 mph - N/A   Haze
3:17 AM 42.8 °F 41.1 °F 35.6 °F 76% 30.20 in 2.0 mi ESE 3.5 mph - N/A   Haze
3:26 AM 42.8 °F - 35.6 °F 76% 30.20 in 2.0 mi Calm Calm - N/A   Haze
3:55 AM 42.1 °F - 34.3 °F 74% 30.21 in 2.5 mi Calm Calm - N/A   Haze
4:10 AM 41.0 °F - 33.8 °F 76% 30.21 in 2.5 mi Calm Calm - N/A   Haze
4:16 AM 42.8 °F - 33.8 °F 70% 30.21 in 1.8 mi Calm Calm - N/A   Haze
4:18 AM 42.8 °F - 33.8 °F 70% 30.21 in 1.2 mi Calm Calm - N/A   Haze
4:20 AM 42.8 °F - 33.8 °F 70% 30.21 in 1.0 mi Calm Calm - N/A   Haze
4:21 AM 42.8 °F - 33.8 °F 70% 30.21 in 1.0 mi Calm Calm - N/A   Haze
4:22 AM 41.0 °F - 33.8 °F 76% 30.21 in 0.8 mi Calm Calm - N/A   Haze
4:25 AM 41.0 °F - 33.8 °F 76% 30.22 in 0.8 mi Calm Calm - N/A   Haze
4:26 AM 41.0 °F - 33.8 °F 76% 30.22 in 0.8 mi Calm Calm - N/A   Haze
4:27 AM 41.0 °F - 33.8 °F 76% 30.22 in 0.8 mi Calm Calm - N/A   Haze
4:39 AM 41.0 °F - 33.8 °F 76% 30.21 in 0.8 mi Calm Calm - N/A   Haze
4:42 AM 41.0 °F 39.0 °F 33.8 °F 76% 30.21 in 1.0 mi SSW 3.5 mph - N/A   Haze
4:46 AM 41.0 °F 39.0 °F 33.8 °F 76% 30.22 in 1.2 mi SSW 3.5 mph - N/A   Haze
4:55 AM 40.5 °F 38.4 °F 33.8 °F 77% 30.22 in 1.5 mi SSW 3.5 mph - N/A   Haze
5:03 AM 39.2 °F 37.0 °F 33.8 °F 81% 30.21 in 1.8 mi South 3.5 mph - N/A   Haze
5:06 AM 39.2 °F 37.0 °F 33.8 °F 81% 30.22 in 1.2 mi South 3.5 mph - N/A   Haze
5:08 AM 39.2 °F - 33.8 °F 81% 30.22 in 1.0 mi Calm Calm - N/A   Haze
5:12 AM 39.2 °F - 33.8 °F 81% 30.22 in 1.0 mi Calm Calm - N/A   Haze
5:13 AM 39.2 °F - 33.8 °F 81% 30.22 in 0.8 mi Calm Calm - N/A   Haze
5:14 AM 39.2 °F - 33.8 °F 81% 30.22 in 1.0 mi Calm Calm - N/A   Haze
5:17 AM 39.2 °F - 33.8 °F 81% 30.22 in 1.0 mi Calm Calm - N/A   Haze
5:19 AM 39.2 °F 37.0 °F 33.8 °F 81% 30.22 in 1.2 mi South 3.5 mph - N/A   Haze
5:26 AM 39.2 °F 37.0 °F 33.8 °F 81% 30.22 in 1.5 mi South 3.5 mph - N/A   Haze
5:29 AM 39.2 °F 35.9 °F 33.8 °F 81% 30.22 in 1.2 mi South 4.6 mph - N/A   Haze
5:33 AM 39.2 °F 35.9 °F 33.8 °F 81% 30.22 in 1.5 mi South 4.6 mph - N/A   Haze
5:46 AM 39.2 °F 37.0 °F 33.8 °F 81% 30.22 in 1.2 mi SSW 3.5 mph - N/A   Haze
5:55 AM 39.4 °F - 34.2 °F 82% 30.22 in 1.2 mi Calm Calm - N/A   Haze
6:27 AM 41.0 °F 38.0 °F 33.8 °F 76% 30.22 in 2.0 mi South 4.6 mph - N/A   Haze
6:41 AM 39.2 °F 37.0 °F 33.8 °F 81% 30.22 in 2.0 mi South 3.5 mph - N/A   Haze
6:44 AM 39.2 °F 37.0 °F 33.8 °F 81% 30.22 in 2.5 mi South 3.5 mph - N/A   Haze
6:55 AM 39.0 °F 36.8 °F 33.3 °F 80% 30.22 in 2.5 mi South 3.5 mph - N/A   Haze
7:55 AM 41.0 °F 39.0 °F 35.1 °F 79% 30.23 in 10.0 mi SSE 3.5 mph - N/A   Clear
8:55 AM 48.0 °F - 36.5 °F 64% 30.22 in 10.0 mi South 6.9 mph - N/A   Clear
9:55 AM 52.5 °F - 37.0 °F 56% 30.21 in 10.0 mi South 10.4 mph - N/A   Clear
10:55 AM 57.6 °F - 36.1 °F 45% 30.19 in 10.0 mi South 11.5 mph - N/A   Clear
11:55 AM 61.3 °F - 36.1 °F 39% 30.16 in 10.0 mi South 10.4 mph - N/A   Clear
12:55 PM 63.9 °F - 35.1 °F 34% 30.13 in 10.0 mi SSW 11.5 mph - N/A   Clear
1:55 PM 65.5 °F - 32.4 °F 29% 30.09 in 10.0 mi SW 13.8 mph - N/A   Clear
2:55 PM 66.2 °F - 31.3 °F 27% 30.06 in 10.0 mi SSW 16.1 mph - N/A   Clear
3:55 PM 66.4 °F - 29.3 °F 25% 30.05 in 10.0 mi South 13.8 mph - N/A   Clear
4:55 PM 64.2 °F - 28.2 °F 26% 30.04 in 10.0 mi SSW 12.7 mph - N/A   Clear
5:55 PM 56.7 °F - 29.7 °F 36% 30.06 in 10.0 mi South 6.9 mph - N/A   Clear
6:55 PM 53.4 °F - 30.0 °F 41% 30.06 in 10.0 mi South 6.9 mph - N/A   Mostly Cloudy
7:55 PM 53.6 °F - 31.3 °F 43% 30.06 in 10.0 mi South 6.9 mph - N/A   Mostly Cloudy
8:55 PM 54.9 °F - 31.5 °F 41% 30.06 in 10.0 mi South 8.1 mph - N/A   Mostly Cloudy
9:55 PM 54.1 °F - 32.4 °F 44% 30.05 in 10.0 mi South 6.9 mph - N/A   Mostly Cloudy
10:55 PM 56.1 °F - 31.1 °F 39% 30.08 in 10.0 mi WNW 5.8 mph - N/A   Mostly Cloudy